Regional Weather Roundup
Issued by NWS Newport/Morehead, NC

Home | Current Version | Previous Version | Text Only | Print | Product List | Glossary On
Versions: 1 2 3 4 5 6 7 8 9 10 11 12 13 14 15 16 17 18 19 20 21 22 23 24 25 26 27 28 29 30 31 32 33 34 35 36 37 38 39 40 41 42 43 44 45 46 47 48 49 50
000
ASUS42 KMHX 012025
RWRMHX
WEATHER ROUNDUP FOR EASTERN NORTH CAROLINA
NATIONAL WEATHER SERVICE NEWPORT/MOREHEAD CITY NC
400 PM EDT TUE SEP 01 2015

NOTE: "FAIR" INDICATES FEW OR NO CLOUDS BELOW 12,000 FEET
WITH NO SIGNIFICANT WEATHER AND/OR OBSTRUCTIONS TO VISIBILITY

NCZ015>017-031-032-045>047-102-103-012100-
NORTH COAST

CITY           SKY/WX    TMP DP  RH WIND       PRES   REMARKS
EDENTON        SUNNY     83  70  65 W5        30.04F
ELIZABETH CITY PTSUNNY   83  72  69 E6        30.03F
KITTY HAWK     CLEAR     85  72  64 E3        30.03F
MANTEO         PTSUNNY   81  72  75 NE7       30.04F

$$

NCZ045>047-081-094-103-104-012100-
CENTRAL COAST

CITY           SKY/WX    TMP DP  RH WIND       PRES   REMARKS
FRISCO         PTSUNNY   85  74  69 NE6       30.03F
SWANQUARTER      N/A     86 N/A N/A W6        30.00S

$$

NCZ095-097-098-100-101-012100-
SOUTHERN COAST

CITY           SKY/WX    TMP DP  RH WIND       PRES   REMARKS
BEAUFORT       SUNNY     83  74  74 SW3       30.04S
CEDAR ISLAND     N/A     84 N/A N/A NW6       30.09S
JACKSONVILLE   MOSUNNY   84  70  62 NW8       30.05S
PINEY ISLAND   PTCLDY   N/A N/A N/A NW7       30.04S
WILMINGTON     MOSUNNY   87  72  60 N3        30.05F


$$

NCZ011>013-027>030-043-044-078>080-089-090>093-098-012100-
COASTAL PLAIN

CITY           SKY/WX    TMP DP  RH WIND       PRES   REMARKS
AHOSKIE        SUNNY     83  69  64 CALM      30.04F
CLINTON        MOSUNNY   89  71  55 NW5       30.06S
ELIZABETHTOWN  SUNNY     89  68  48 CALM      30.05F
GOLDSBORO      MOSUNNY   88  70  55 VRB2      30.04F
GREENVILLE     MOSUNNY   86  72  62 NE3       30.06S
HAVELOCK       MOSUNNY   86  71  60 N10       30.05S
KENANSVILLE      N/A     84  69  60 CALM      30.07R
KINSTON        MOSUNNY   86  70  58 N6        30.06F
NEW BERN       SUNNY     84  68  58 N5        30.05F
RICHLANDS      MOSUNNY   84  66  54 NW5       30.06R
ROCKY MOUNT    PTSUNNY   90  68  48 VRB6      30.05F
WASHINGTON     MOSUNNY   84  71  65 CALM      30.04F
WHITEVILLE     SUNNY     89  70  54 NW3       30.05F

$$

AMZ130-135-150-152-154-156-158-170-250-252-270-ANZ085-086-088-633-658-670-012100-
MARINE OBSERVATIONS

STATION/POSITION TIME  TEMP    WIND        PRES    WAVE   SWELL
                       AIR SEA DIR/SP/G            HT/PER HT/PER
                 (UTC) (F)     (DEG/KT/KT) (MB)    (FT/S) (FT/S)
CHESAPEAKE LIGHT 2000   77      80/  4/  5 1017.8
64 E VA BEACH    1950   78 80  360/  6/  8 1016.7    2/ 8   2/ 8
DUCK             2000   80 79   70/  4/  5 1016.5
2 E DUCK         1911      81                N/A     2/11
OREGON INLET     2000   80 80   30/  8/  9 1017.0
13E OREGON INLT  2000      80                N/A     2/10
HATTERAS CG      2000   81 81  320/  5/  5 1016.9
DIAMOND BUOY     1950   80 84  360/  6/  8 1017.0    2/10   2/10
CAPE LOOKOUT     2000   82     230/  7/  9 1017.0
BEAUFORT LAB     2000   83 79  210/  6/ 10 1016.6
30 SE NEW RVR IN 1908   80 83  300/  4/  6 1018.2
30 SE NEW RVR IN 1925      83                N/A     3/ 7
27 SE WRIGHTSVLE 2000   77 83  200/  2/  4   N/A
5 SE WRIGHTSVLE  NOT AVBL
225 S CAPE HAT   1950   84 85  300/  4/  6 1018.0    3/ 6   3/ 6
41 SE CHARLESTON 1950   81 83   60/  4/  6 1018.5    2/ 8   2/ 8

$$


USA.gov is the U.S. government's official web portal to all federal, state and local government web resources and services.